FENGYUN 1C DEB, 32136

Orbit data source: Space-Track

FENGYUN 1C DEB, 32136 is space debris in SSO originally from a launch on Mon, 10 May 1999 UTC launched from the Taiyaun Space Center, China (TSC). Fengyun 1C debris stems from the Chinese weather satellite Fengyun-1C, which was intentionally destroyed by a Chinese anti-satellite missile in 2007. This event dramatically increased the amount of space debris, with thousands of trackable fragments posing hazards to satellites and human spaceflight. The Fengyun 1C debris cloud has become a focal point in discussions about space sustainability and the need for international regulations to prevent the creation of new debris.

Loading next visibility...
Identifier
32136, 1999-025CSE
Orbit
SSO
Country
Flag of CNCN / PRC
Related business
Manufacturer
Unknown
Mission
Spacecraft
Bus & Motor
Unknown
Mass
Unknown
Launch date (UTC)
1999-05-10 (27 years ago)
Launch vehicle
Unknown
Launch site
Taiyaun Space Center, China (TSC)
Object type
Payload
Rocket body
Debris
Shape & HBR
Unknown shape, 0.1 m
Radar Cross Section
Small (<0.1 m²)

Expand to show TLE details & history
Last TLE update: 3 weeks ago

TLE from 3 weeks ago
0 FENGYUN 1C DEB
1 32136U 99025CSE 26047.43779428  .00002068  00000-0  67652-3 0  9998
2 32136  98.2693  48.1096 0066294 337.8454  21.9872 14.38278102660347
Epoch: 2026-02-16T10:30Z
TLE epoch observation values (Epoch: 2026-02-16T10:30:25.425Z)
Latitude
-0.00004°
Longitude
104.07152°
Altitude
723.277 km
Speed
7.517 km/s
True Right ascension
03h 12m 26s
True Declination
0° 00' 00"
Sunlit
Object was in daylight at epoch
Visualization orbit readout
Latitude
Unknown
Longitude
Unknown
Altitude
Unknown
Speed
Unknown
Apparent Right ascension
Unknown
Apparent Declination
Unknown
Sunlit
N/A
Visualization observer readout
Local Sidereal Time
19:58:52
Azimuth
Unknown
Elevation
Unknown
Doppler factor
Unknown
Orbital elements
Apogee altitude
808.637 km
Perigee altitude
713.976 km
Semi-major axis
7,139.444 km
Eccentricity
0.00663
Inclination
98.2693°
RAAN
48.1096°
Arg. of periapsis
337.8454°
True anomaly
22.27382°
Mean anomaly
21.9872°
Eccentric anomaly
22.13029°
Mean motion
3.59788 °/min
Orbital period
100.06 mins
BSTAR
0.00067652
Loading maneuver chart data...
Computing Atmospheric mass density...

Documentation

Showing up to 5 results
|